Flag for Norway Weather past 2 weeks in Kirkenes, Norway

Now
29 °F

Chilly.


Feels Like: 25 °F
Forecast: 24 / 36 °F
Wind: 3 mph from North

Location: Kirkenes Lufthavn

Current Time: Apr 28, 2015 at 9:48:10 AM

Latest Report: Apr 28, 2015 at 9:00 AM


Visibility: N/A

Pressure: 29.63 "Hg

Humidity: 93%

Dew point: 27 °F

Location of KirkenesLocation

Historic Weather in Kirkenes — Graph

°F

Kirkenes temperature yesterday

Maximum temperature yesterday: 35 °F (at 2:00 PM)
Minimum temperature yesterday: 27 °F (at 11:00 PM)
Average temperature yesterday: 31 °F

Past Weeks' High & Low Weather Summary

 TemperatureHumidityPressure
High41 °F (Apr 21, 12:00 PM)100% (Apr 22, 7:00 PM)29.99 "Hg (Apr 22, 7:00 PM)
Low24 °F (Apr 24, 4:00 AM)50% (Apr 27, 3:00 PM)29.18 "Hg (Apr 23, 4:00 AM)
Average33 °F83%29.71 "Hg
* Reported Apr 13 8:00 AM — Apr 28 8:00 AM, Kirkenes, Weather by CustomWeather, © 2015

Note: Actual official high and low records may vary slightly from our data, if they occured in-between our weather recording intervals... More about our weather records

Advertising

Kirkenes weather history for previous 24 hours

 ConditionsComfort  
Time TempWeatherWind HumidityBarometerVisibility
8:00 AM
Tue, Apr 28
28 °FChilly.2 mph89%29.62 "HgN/A
7:00 AM28 °FChilly.1 mph90%29.62 "HgN/A
6:00 AM27 °FChilly.1 mph92%29.62 "HgN/A
5:00 AM27 °FChilly.1 mph86%29.63 "HgN/A
4:00 AM28 °FChilly.No wind81%29.64 "HgN/A
3:00 AM28 °FChilly.2 mph79%29.65 "HgN/A
2:00 AM27 °FChilly.No wind79%29.66 "HgN/A
1:00 AM26 °FChilly.No wind79%29.67 "HgN/A
12:00 AM27 °FChilly.1 mph77%29.68 "HgN/A
11:00 PM
Mon, Apr 27
27 °FChilly.2 mph76%29.69 "HgN/A
10:00 PM28 °FChilly.2 mph76%29.70 "HgN/A
9:00 PM29 °FChilly.3 mph75%29.70 "HgN/A
8:00 PM31 °FChilly.2 mph70%29.71 "HgN/A
7:00 PM31 °FChilly.2 mph62%29.72 "HgN/A
6:00 PM33 °FChilly.1 mph54%29.73 "HgN/A
5:00 PM33 °FChilly.1 mph54%29.74 "HgN/A
4:00 PM33 °FChilly.2 mph54%29.75 "HgN/A
3:00 PM35 °FChilly.2 mph50%29.75 "HgN/A
2:00 PM35 °FChilly.No wind53%29.76 "HgN/A
1:00 PM33 °FChilly.3 mph55%29.77 "HgN/A
12:00 PM33 °FChilly.2 mph52%29.78 "HgN/A
11:00 AM32 °FChilly.5 mph62%29.78 "HgN/A
10:00 AM31 °FChilly.3 mph62%29.79 "HgN/A
9:00 AM31 °FChilly.5 mph68%29.79 "HgN/A
Weather by CustomWeather, © 2015

See weather overviewHow to use our weather pages